Terminal Aerodrome Forecast
Issued by NWS Bismarck, ND

Home | Current Version | Previous Version | Graphics & Text | Print | Product List | Glossary On
Versions: 1 2 3 4 5 6 7 8 9 10 11 12 13 14 15 16 17 18
000
FTUS43 KBIS 221000 AAA
TAFBIS
TAF AMD
KBIS 221012Z 2210/2306 11005KT P6SM SCT250
     FM221400 14011KT P6SM SCT180 BKN250
     FM221800 14020G27KT P6SM SCT140 BKN200
     FM230000 13022G30KT P6SM SCT080 BKN110=

USA.gov is the U.S. government's official web portal to all federal, state and local government web resources and services.